This is the latest recevied weather packets stored in our database for station/object KC5TIL-3. If no packets are shown the sender has not sent any weather packets the latest 10 day(s).
| Time | Temp. | Humidity | Pressure | Rain* | Wind** | Luminosity | Snow |
|---|---|---|---|---|---|---|---|
| 1787968153 | 35° C | 11% | 1012.8 hPa | 0 mm | 2.68 m/s, 112° | - | - |
| 1787967855 | 35° C | 11% | 1011.8 hPa | 0 mm | 1.79 m/s, 112° | - | - |
| 1787967554 | 35° C | 11% | 1011.8 hPa | 0 mm | 1.79 m/s, 115° | - | - |
| 1787967255 | 35° C | 11% | 1011.8 hPa | 0 mm | 1.79 m/s, 110° | - | - |
| 1787966957 | 35.56° C | 11% | 1011.8 hPa | 0 mm | 2.24 m/s, 117° | - | - |
| 1787966656 | 35.56° C | 11% | 1011.8 hPa | 0 mm | 1.79 m/s, 117° | - | - |
| 1787966358 | 35.56° C | 11% | 1011.8 hPa | 0 mm | 2.24 m/s, 104° | - | - |
| 1787966059 | 35.56° C | 11% | 1011.8 hPa | 0 mm | 2.68 m/s, 116° | - | - |
| 1787965758 | 36.11° C | 11% | 1011.8 hPa | 0 mm | 2.68 m/s, 123° | - | - |
| 1787965460 | 36.11° C | 11% | 1011.8 hPa | 0 mm | 1.34 m/s, 120° | - | - |
| 1787965162 | 36.11° C | 11% | 1011.8 hPa | 0 mm | 2.24 m/s, 113° | - | - |
| 1787964860 | 36.11° C | 11% | 1011.8 hPa | 0 mm | 2.68 m/s, 116° | - | - |
| 1787964562 | 36.11° C | 11% | 1011.8 hPa | 0 mm | 3.13 m/s, 114° | - | - |
| 1787964259 | 36.11° C | 11% | 1011.8 hPa | 0 mm | 2.24 m/s, 119° | - | - |
| 1787963958 | 36.11° C | 10% | 1011.8 hPa | 0 mm | 3.58 m/s, 113° | - | - |
| 1787963659 | 36.11° C | 10% | 1011.8 hPa | 0 mm | 2.24 m/s, 125° | - | - |
| 1787963361 | 36.67° C | 10% | 1011.8 hPa | 0 mm | 2.68 m/s, 119° | - | - |
| 1787963060 | 36.67° C | 10% | 1011.8 hPa | 0 mm | 3.13 m/s, 114° | - | - |
| 1787962762 | 36.67° C | 10% | 1011.8 hPa | 0 mm | 1.79 m/s, 153° | - | - |
| 1787962463 | 36.67° C | 10% | 1011.8 hPa | 0 mm | 2.24 m/s, 79° | - | - |
| 1787962138 | 37.22° C | 10% | 1011.8 hPa | 0 mm | 1.34 m/s, 295° | - | - |
| 1787961840 | 37.22° C | 10% | 1010.8 hPa | 0 mm | 1.79 m/s, 112° | - | - |
| 1787961542 | 36.67° C | 10% | 1010.8 hPa | 0 mm | 4.47 m/s, 138° | - | - |
| 1787961240 | 37.22° C | 10% | 1010.8 hPa | 0 mm | 1.79 m/s, 98° | - | - |
| 1787960942 | 37.22° C | 10% | 1011.8 hPa | 0 mm | 2.68 m/s, 93° | - | - |
* Rain latest hour (hover to see other rain measurements)
** Current wind speed in m/s (hover to see current wind gust speed)